Change the Weather History Date:

Sunday, August 31, 2014

  Actual Average Record
Temperature  
Mean Temperature 70 °F 64 °F  
Max Temperature 80 °F 75 °F 97 °F (2010)
Min Temperature 60 °F 53 °F 35 °F (1938)
Degree Days  
Heating Degree Days 0 3  
Month to date heating degree days 16 44  
Since 1 June heating degree days 92 170  
Since 1 July heating degree days 21 63  
Cooling Degree Days 5 2  
Month to date cooling degree days 95 104  
Year to date cooling degree days 314 294  
Since 1 June cooling degree days 314 288  
Growing Degree Days 20 (Base 50)    
Moisture  
Dew Point 63 °F    
Average Humidity 80    
Maximum Humidity 97    
Minimum Humidity 62    
Precipitation  
Precipitation 0.15 in 0.08 in 1.03 in (1954)
Month to date precipitation 2.96 2.98  
Year to date precipitation 27.74 26.25  
Snow  
Snow 0.00 in 0.00 in 0.00 in (2002)
Month to date snowfall 0.0 0.0  
Since 1 June snowfall 0.0 0.0  
Since 1 July snowfall 0.0 0.0  
Snow Depth 0.00 in    
Sea Level Pressure  
Sea Level Pressure 29.96 in    
Wind  
Wind Speed 8 mph (SSW)    
Max Wind Speed 13 mph    
Max Gust Speed 17 mph    
Visibility 8 miles    
Events Rain    
T = Trace of Precipitation, MM = Missing Value Source: NWS Daily Summary

Daily Weather History Graph

Daily Weather History Graph

Search for Another Location

Airport or City:

Trip Planner

Search our weather history database for the weather conditions in past years. The results will help you decide how hot, cold, wet, or windy it might be!

Date:

Astronomy

Aug. 31, 2014 Rise Set
Actual Time 5:56 AM EDT 7:13 PM EDT
Civil Twilight 5:26 AM EDT 7:44 PM EDT
Nautical Twilight 4:49 AM EDT 8:20 PM EDT
Astronomical Twilight 4:10 AM EDT 8:59 PM EDT
Moon 11:54 AM EDT (8/31) 10:10 PM EDT (8/31)
Length of Visible Light 14h 18m
Length of Day
13h 17m
Waxing Crescent, 32% of the Moon is Illuminated
Aug 31
Waxing Crescent
Sep 2
First Quarter
Sep 8
Full
Sep 15
Last Quarter
Sep 24
New

Hourly Weather History & Observations

Time (EDT) Temp. Heat Index Dew Point Humidity Pressure Visibility Wind Dir Wind Speed Gust Speed Precip Events Conditions
12:53 AM 60.1 °F - 55.9 °F 86% 30.07 in 10.0 mi SSW 8.1 mph - N/A   Clear
1:53 AM 61.0 °F - 57.0 °F 87% 30.04 in 10.0 mi South 5.8 mph - N/A   Scattered Clouds
2:53 AM 62.1 °F - 57.9 °F 86% 30.02 in 10.0 mi South 9.2 mph - N/A   Scattered Clouds
3:53 AM 61.0 °F - 57.9 °F 90% 30.02 in 10.0 mi South 8.1 mph - N/A   Scattered Clouds
4:53 AM 62.1 °F - 59.0 °F 90% 30.01 in 10.0 mi SSW 9.2 mph - N/A   Mostly Cloudy
5:33 AM 63.0 °F - 59.0 °F 87% 30.01 in 10.0 mi South 10.4 mph - N/A   Mostly Cloudy
5:53 AM 63.0 °F - 59.0 °F 87% 30.01 in 10.0 mi SSW 8.1 mph - N/A   Overcast
6:06 AM 63.0 °F - 59.0 °F 87% 30.01 in 10.0 mi South 8.1 mph - N/A   Overcast
6:53 AM 64.0 °F - 60.1 °F 87% 30.00 in 10.0 mi South 10.4 mph - N/A   Mostly Cloudy
7:53 AM 64.9 °F - 60.1 °F 84% 30.01 in 10.0 mi SSW 9.2 mph - N/A   Overcast
8:53 AM 66.9 °F - 61.0 °F 81% 30.00 in 10.0 mi SSW 9.2 mph - N/A   Overcast
9:53 AM 70.0 °F - 62.1 °F 76% 29.98 in 10.0 mi SSW 9.2 mph - N/A   Overcast
10:53 AM 71.1 °F - 63.0 °F 75% 29.97 in 10.0 mi South 6.9 mph - N/A   Overcast
11:53 AM 73.0 °F - 64.0 °F 73% 29.96 in 10.0 mi SSW 6.9 mph - N/A   Overcast
12:53 PM 75.9 °F - 64.0 °F 67% 29.94 in 10.0 mi South 9.2 mph - N/A   Mostly Cloudy
1:53 PM 80.1 °F 82.1 °F 66.0 °F 62% 29.92 in 10.0 mi SSW 9.2 mph - N/A   Mostly Cloudy
2:53 PM 78.1 °F - 66.9 °F 68% 29.91 in 10.0 mi South 10.4 mph - N/A   Overcast
3:53 PM 73.9 °F - 66.0 °F 76% 29.91 in 10.0 mi South 6.9 mph - N/A   Overcast
4:53 PM 73.9 °F - 66.9 °F 79% 29.91 in 10.0 mi South 4.6 mph - 0.00 in Rain Light Rain
5:53 PM 72.0 °F - 68.0 °F 87% 29.91 in 6.0 mi South 6.9 mph - 0.01 in Rain Light Rain
6:53 PM 71.1 °F - 68.0 °F 90% 29.92 in 4.0 mi SSW 5.8 mph - 0.03 in Rain Light Rain
7:53 PM 70.0 °F - 68.0 °F 93% 29.91 in 4.0 mi South 5.8 mph - 0.03 in Rain Light Rain
8:53 PM 70.0 °F - 68.0 °F 93% 29.93 in 5.0 mi SSW 4.6 mph - 0.03 in Rain Light Rain
9:53 PM 69.8 °F - 68.0 °F 94% 29.92 in 3.0 mi South 6.9 mph - N/A Rain Light Rain
10:53 PM 69.1 °F - 66.9 °F 93% 29.91 in 4.0 mi South 6.9 mph - 0.01 in   Light Drizzle
11:53 PM 69.1 °F - 66.9 °F 93% 29.89 in 6.0 mi South 6.9 mph - 0.01 in   Light Drizzle